Year,Month,Day,Hour,Minute,Value (Times are PST for temperature in C)
2014,04,26,00,00,6.70
2014,04,26,00,01,6.70
2014,04,26,00,02,6.70
2014,04,26,00,03,6.70
2014,04,26,00,04,6.70
2014,04,26,00,05,6.70
2014,04,26,00,06,6.60
2014,04,26,00,07,6.60
2014,04,26,00,08,6.60
2014,04,26,00,09,6.60
2014,04,26,00,10,6.60
2014,04,26,00,11,6.60
2014,04,26,00,12,6.60
2014,04,26,00,13,6.60
2014,04,26,00,14,6.60
2014,04,26,00,15,6.50
2014,04,26,00,16,6.40
2014,04,26,00,17,6.40
2014,04,26,00,18,6.40
2014,04,26,00,19,6.30
2014,04,26,00,20,6.30
2014,04,26,00,21,6.30
2014,04,26,00,22,6.30
2014,04,26,00,23,6.30
2014,04,26,00,24,6.30
2014,04,26,00,25,6.20
2014,04,26,00,26,6.20
2014,04,26,00,27,6.20
2014,04,26,00,28,6.20
2014,04,26,00,29,6.20
2014,04,26,00,30,6.10
2014,04,26,00,31,6.10
2014,04,26,00,32,6.10
2014,04,26,00,33,6.10
2014,04,26,00,34,6.10
2014,04,26,00,35,6.10
2014,04,26,00,36,6.10
2014,04,26,00,37,6.10
2014,04,26,00,38,6.10
2014,04,26,00,39,6.10
2014,04,26,00,40,6.10
2014,04,26,00,41,6.10
2014,04,26,00,42,6.10
2014,04,26,00,43,6.10
2014,04,26,00,44,6.10
2014,04,26,00,45,6.10
2014,04,26,00,46,6.10
2014,04,26,00,47,6.10
2014,04,26,00,48,6.00
2014,04,26,00,49,6.00
2014,04,26,00,50,6.00
2014,04,26,00,51,6.00
2014,04,26,00,52,6.00
2014,04,26,00,53,6.00
2014,04,26,00,54,6.00
2014,04,26,00,55,6.00
2014,04,26,00,56,6.00
2014,04,26,00,57,6.00
2014,04,26,00,58,6.00
2014,04,26,00,59,6.00
2014,04,26,01,00,6.00
2014,04,26,01,01,6.00
2014,04,26,01,02,6.00
2014,04,26,01,03,6.00
2014,04,26,01,04,6.00
2014,04,26,01,05,6.00
2014,04,26,01,06,6.00
2014,04,26,01,07,5.90
2014,04,26,01,08,5.90
2014,04,26,01,09,5.90
2014,04,26,01,10,5.90
2014,04,26,01,11,5.90
2014,04,26,01,12,5.90
2014,04,26,01,13,5.90
2014,04,26,01,14,5.90
2014,04,26,01,15,5.90
2014,04,26,01,16,5.90
2014,04,26,01,17,5.90
2014,04,26,01,18,5.80
2014,04,26,01,19,5.80
2014,04,26,01,20,5.80
2014,04,26,01,21,5.80
2014,04,26,01,22,5.80
2014,04,26,01,23,5.80
2014,04,26,01,24,5.80
2014,04,26,01,25,5.70
2014,04,26,01,26,5.70
2014,04,26,01,27,5.70
2014,04,26,01,28,5.70
2014,04,26,01,29,5.70
2014,04,26,01,30,5.60
2014,04,26,01,31,5.60
2014,04,26,01,32,5.60
2014,04,26,01,33,5.50
2014,04,26,01,34,5.40
2014,04,26,01,35,5.30
2014,04,26,01,36,5.30
2014,04,26,01,37,5.30
2014,04,26,01,38,5.30
2014,04,26,01,39,5.20
2014,04,26,01,40,5.20
2014,04,26,01,41,5.10
2014,04,26,01,42,5.10
2014,04,26,01,43,5.10
2014,04,26,01,44,5.10
2014,04,26,01,45,5.00
2014,04,26,01,46,5.10
2014,04,26,01,47,5.10
2014,04,26,01,48,5.10
2014,04,26,01,49,5.10
2014,04,26,01,50,5.20
2014,04,26,01,51,5.20
2014,04,26,01,52,5.20
2014,04,26,01,53,5.20
2014,04,26,01,54,5.20
2014,04,26,01,55,5.20
2014,04,26,01,56,5.20
2014,04,26,01,57,5.20
2014,04,26,01,58,5.20
2014,04,26,01,59,5.20
2014,04,26,02,00,5.20
2014,04,26,02,01,5.10
2014,04,26,02,02,5.10
2014,04,26,02,03,5.10
2014,04,26,02,04,5.10
2014,04,26,02,05,5.10
2014,04,26,02,06,5.10
2014,04,26,02,07,5.00
2014,04,26,02,08,4.90
2014,04,26,02,09,4.90
2014,04,26,02,10,4.90
2014,04,26,02,11,4.90
2014,04,26,02,12,4.90
2014,04,26,02,13,4.90
2014,04,26,02,14,4.90
2014,04,26,02,15,4.90
2014,04,26,02,16,4.90
2014,04,26,02,17,5.00
2014,04,26,02,18,5.10
2014,04,26,02,19,5.10
2014,04,26,02,20,5.10
2014,04,26,02,21,5.10
2014,04,26,02,22,5.10
2014,04,26,02,23,5.10
2014,04,26,02,24,5.10
2014,04,26,02,25,5.10
2014,04,26,02,26,5.10
2014,04,26,02,27,5.10
2014,04,26,02,28,5.10
2014,04,26,02,29,5.10
2014,04,26,02,30,5.10
2014,04,26,02,31,5.10
2014,04,26,02,32,5.10
2014,04,26,02,33,5.10
2014,04,26,02,34,5.10
2014,04,26,02,35,5.10
2014,04,26,02,36,5.10
2014,04,26,02,37,5.10
2014,04,26,02,38,5.10
2014,04,26,02,39,5.10
2014,04,26,02,40,5.10
2014,04,26,02,41,5.20
2014,04,26,02,42,5.20
2014,04,26,02,43,5.20
2014,04,26,02,44,5.30
2014,04,26,02,45,5.30
2014,04,26,02,46,5.30
2014,04,26,02,47,5.30
2014,04,26,02,48,5.40
2014,04,26,02,49,5.40
2014,04,26,02,50,5.50
2014,04,26,02,51,5.50
2014,04,26,02,52,5.50
2014,04,26,02,53,5.50
2014,04,26,02,54,5.50
2014,04,26,02,55,5.50
2014,04,26,02,56,5.60
2014,04,26,02,57,5.60
2014,04,26,02,58,5.60
2014,04,26,02,59,5.60
2014,04,26,03,00,5.60
2014,04,26,03,01,5.60
2014,04,26,03,02,5.60
2014,04,26,03,03,5.60
2014,04,26,03,04,5.70
2014,04,26,03,05,5.70
2014,04,26,03,06,5.70
2014,04,26,03,07,5.70
2014,04,26,03,08,5.70
2014,04,26,03,09,5.70
2014,04,26,03,10,5.70
2014,04,26,03,11,5.70
2014,04,26,03,12,5.70
2014,04,26,03,13,5.70
2014,04,26,03,14,5.80
2014,04,26,03,15,5.80
2014,04,26,03,16,5.80
2014,04,26,03,17,5.70
2014,04,26,03,18,5.70
2014,04,26,03,19,5.70
2014,04,26,03,20,5.70
2014,04,26,03,21,5.70
2014,04,26,03,22,5.70
2014,04,26,03,23,5.70
2014,04,26,03,24,5.70
2014,04,26,03,25,5.70
2014,04,26,03,26,5.60
2014,04,26,03,27,5.60
2014,04,26,03,28,5.60
2014,04,26,03,29,5.60
2014,04,26,03,30,5.50
2014,04,26,03,31,5.50
2014,04,26,03,32,5.50
2014,04,26,03,33,5.50
2014,04,26,03,34,5.50
2014,04,26,03,35,5.40
2014,04,26,03,36,5.40
2014,04,26,03,37,5.30
2014,04,26,03,38,5.30
2014,04,26,03,39,5.30
2014,04,26,03,40,5.30
2014,04,26,03,41,5.30
2014,04,26,03,42,5.20
2014,04,26,03,43,5.20
2014,04,26,03,44,5.20
2014,04,26,03,45,5.20
2014,04,26,03,46,5.20
2014,04,26,03,47,5.10
2014,04,26,03,48,5.10
2014,04,26,03,49,5.10
2014,04,26,03,50,5.10
2014,04,26,03,51,5.10
2014,04,26,03,52,5.10
2014,04,26,03,53,5.10
2014,04,26,03,54,5.10
2014,04,26,03,55,5.10
2014,04,26,03,56,5.20
2014,04,26,03,57,5.20
2014,04,26,03,58,5.20
2014,04,26,03,59,5.20
2014,04,26,04,00,5.30
2014,04,26,04,01,5.30
2014,04,26,04,02,5.30
2014,04,26,04,03,5.30
2014,04,26,04,04,5.30
2014,04,26,04,05,5.30
2014,04,26,04,06,5.30
2014,04,26,04,07,5.30
2014,04,26,04,08,5.30
2014,04,26,04,09,5.30
2014,04,26,04,10,5.30
2014,04,26,04,11,5.30
2014,04,26,04,12,5.30
2014,04,26,04,13,5.20
2014,04,26,04,14,5.20
2014,04,26,04,15,5.20
2014,04,26,04,16,5.20
2014,04,26,04,17,5.20
2014,04,26,04,18,5.20
2014,04,26,04,19,5.10
2014,04,26,04,20,5.10
2014,04,26,04,21,5.10
2014,04,26,04,22,5.10
2014,04,26,04,23,5.10
2014,04,26,04,24,5.10
2014,04,26,04,25,5.10
2014,04,26,04,26,5.10
2014,04,26,04,27,5.10
2014,04,26,04,28,5.10
2014,04,26,04,29,5.10
2014,04,26,04,30,5.10
2014,04,26,04,31,4.90
2014,04,26,04,32,4.90
2014,04,26,04,33,4.80
2014,04,26,04,34,4.80
2014,04,26,04,35,4.70
2014,04,26,04,36,4.70
2014,04,26,04,37,4.60
2014,04,26,04,38,4.60
2014,04,26,04,39,4.60
2014,04,26,04,40,4.60
2014,04,26,04,41,4.60
2014,04,26,04,42,4.60
2014,04,26,04,43,4.60
2014,04,26,04,44,4.60
2014,04,26,04,45,4.60
2014,04,26,04,46,4.50
2014,04,26,04,47,4.50
2014,04,26,04,48,4.50
2014,04,26,04,49,4.50
2014,04,26,04,50,4.50
2014,04,26,04,51,4.60
2014,04,26,04,52,4.70
2014,04,26,04,53,4.80
2014,04,26,04,54,4.90
2014,04,26,04,55,4.90
2014,04,26,04,56,4.90
2014,04,26,04,57,4.90
2014,04,26,04,58,4.90
2014,04,26,04,59,4.90
2014,04,26,05,00,4.90
2014,04,26,05,01,4.90
2014,04,26,05,02,4.90
2014,04,26,05,03,4.90
2014,04,26,05,04,4.90
2014,04,26,05,05,4.90
2014,04,26,05,06,4.80
2014,04,26,05,07,4.70
2014,04,26,05,08,4.70
2014,04,26,05,09,4.60
2014,04,26,05,10,4.60
2014,04,26,05,11,4.50
2014,04,26,05,12,4.50
2014,04,26,05,13,4.40
2014,04,26,05,14,4.40
2014,04,26,05,15,4.40
2014,04,26,05,16,4.30
2014,04,26,05,17,4.30
2014,04,26,05,18,4.30
2014,04,26,05,19,4.20
2014,04,26,05,20,4.20
2014,04,26,05,21,4.20
2014,04,26,05,22,4.20
2014,04,26,05,23,4.30
2014,04,26,05,24,4.30
2014,04,26,05,25,4.30
2014,04,26,05,26,4.30
2014,04,26,05,27,4.30
2014,04,26,05,28,4.30
2014,04,26,05,29,4.30
2014,04,26,05,30,4.30
2014,04,26,05,31,4.30
2014,04,26,05,32,4.40
2014,04,26,05,33,4.40
2014,04,26,05,34,4.40
2014,04,26,05,35,4.40
2014,04,26,05,36,4.40
2014,04,26,05,37,4.40
2014,04,26,05,38,4.40
2014,04,26,05,39,4.40
2014,04,26,05,40,4.50
2014,04,26,05,41,4.50
2014,04,26,05,42,4.50
2014,04,26,05,43,4.40
2014,04,26,05,44,4.40
2014,04,26,05,45,4.40
2014,04,26,05,46,4.40
2014,04,26,05,47,4.40
2014,04,26,05,48,4.40
2014,04,26,05,49,4.40
2014,04,26,05,50,4.40
2014,04,26,05,51,4.40
2014,04,26,05,52,4.40
2014,04,26,05,53,4.40
2014,04,26,05,54,4.40
2014,04,26,05,55,4.40
2014,04,26,05,56,4.40
2014,04,26,05,57,4.30
2014,04,26,05,58,4.30
2014,04,26,05,59,4.30
2014,04,26,06,00,4.30
2014,04,26,06,01,4.30
2014,04,26,06,02,4.30
2014,04,26,06,03,4.30
2014,04,26,06,04,4.20
2014,04,26,06,05,4.20
2014,04,26,06,06,4.20
2014,04,26,06,07,4.20
2014,04,26,06,08,4.20
2014,04,26,06,09,4.20
2014,04,26,06,10,4.20
2014,04,26,06,11,4.20
2014,04,26,06,12,4.30
2014,04,26,06,13,4.30
2014,04,26,06,14,4.30
2014,04,26,06,15,4.30
2014,04,26,06,16,4.30
2014,04,26,06,17,4.40
2014,04,26,06,18,4.40
2014,04,26,06,19,4.40
2014,04,26,06,20,4.40
2014,04,26,06,21,4.40
2014,04,26,06,22,4.40
2014,04,26,06,23,4.40
2014,04,26,06,24,4.50
2014,04,26,06,25,4.50
2014,04,26,06,26,4.50
2014,04,26,06,27,4.50
2014,04,26,06,28,4.50
2014,04,26,06,29,4.50
2014,04,26,06,30,4.50
2014,04,26,06,31,4.50
2014,04,26,06,32,4.50
2014,04,26,06,33,4.50
2014,04,26,06,34,4.50
2014,04,26,06,35,4.50
2014,04,26,06,36,4.60
2014,04,26,06,37,4.60
2014,04,26,06,38,4.60
2014,04,26,06,39,4.60
2014,04,26,06,40,4.60
2014,04,26,06,41,4.60
2014,04,26,06,42,4.70
2014,04,26,06,43,4.80
2014,04,26,06,44,4.90
2014,04,26,06,45,5.00
2014,04,26,06,46,5.10
2014,04,26,06,47,5.30
2014,04,26,06,48,5.40
2014,04,26,06,49,5.60
2014,04,26,06,50,5.70
2014,04,26,06,51,5.80
2014,04,26,06,52,6.00
2014,04,26,06,53,6.10
2014,04,26,06,54,6.20
2014,04,26,06,55,6.30
2014,04,26,06,56,6.40
2014,04,26,06,57,6.40
2014,04,26,06,58,6.60
2014,04,26,06,59,6.60
2014,04,26,07,00,6.60
2014,04,26,07,01,6.70
2014,04,26,07,02,6.70
2014,04,26,07,03,6.70
2014,04,26,07,04,6.70
2014,04,26,07,05,6.80
2014,04,26,07,06,6.80
2014,04,26,07,07,6.80
2014,04,26,07,08,6.80
2014,04,26,07,09,6.80
2014,04,26,07,10,6.80
2014,04,26,07,11,6.80
2014,04,26,07,12,6.80
2014,04,26,07,13,6.80
2014,04,26,07,14,6.80
2014,04,26,07,15,6.80
2014,04,26,07,16,6.80
2014,04,26,07,17,6.80
2014,04,26,07,18,6.80
2014,04,26,07,19,6.80
2014,04,26,07,20,6.80
2014,04,26,07,21,6.90
2014,04,26,07,22,6.90
2014,04,26,07,23,6.90
2014,04,26,07,24,6.90
2014,04,26,07,25,7.00
2014,04,26,07,26,7.00
2014,04,26,07,27,7.00
2014,04,26,07,28,7.10
2014,04,26,07,29,7.10
2014,04,26,07,30,7.10
2014,04,26,07,31,7.10
2014,04,26,07,32,7.20
2014,04,26,07,33,7.20
2014,04,26,07,34,7.30
2014,04,26,07,35,7.30
2014,04,26,07,36,7.30
2014,04,26,07,37,7.30
2014,04,26,07,38,7.40
2014,04,26,07,39,7.40
2014,04,26,07,40,7.40
2014,04,26,07,41,7.50
2014,04,26,07,42,7.50
2014,04,26,07,43,7.60
2014,04,26,07,44,7.60
2014,04,26,07,45,7.60
2014,04,26,07,46,7.70
2014,04,26,07,47,7.70
2014,04,26,07,48,7.80
2014,04,26,07,49,7.80
2014,04,26,07,50,7.80
2014,04,26,07,51,7.80
2014,04,26,07,52,7.80
2014,04,26,07,53,7.90
2014,04,26,07,54,7.90
2014,04,26,07,55,7.90
2014,04,26,07,56,8.00
2014,04,26,07,57,8.00
2014,04,26,07,58,8.00
2014,04,26,07,59,8.00
2014,04,26,08,00,8.00
2014,04,26,08,01,8.00
2014,04,26,08,02,8.00
2014,04,26,08,03,8.00
2014,04,26,08,04,8.00
2014,04,26,08,05,8.00
2014,04,26,08,06,8.00
2014,04,26,08,07,8.00
2014,04,26,08,08,8.00
2014,04,26,08,09,8.00
2014,04,26,08,10,8.00
2014,04,26,08,11,8.00
2014,04,26,08,12,8.00
2014,04,26,08,13,8.00
2014,04,26,08,14,8.00
2014,04,26,08,15,8.00
2014,04,26,08,16,8.00
2014,04,26,08,17,8.10
2014,04,26,08,18,8.10
2014,04,26,08,19,8.10
2014,04,26,08,20,8.20
2014,04,26,08,21,8.20
2014,04,26,08,22,8.30
2014,04,26,08,23,8.30
2014,04,26,08,24,8.30
2014,04,26,08,25,8.30
2014,04,26,08,26,8.30
2014,04,26,08,27,8.40
2014,04,26,08,28,8.40
2014,04,26,08,29,8.40
2014,04,26,08,30,8.40
2014,04,26,08,31,8.50
2014,04,26,08,32,8.50
2014,04,26,08,33,8.50
2014,04,26,08,34,8.60
2014,04,26,08,35,8.60
2014,04,26,08,36,8.60
2014,04,26,08,37,8.60
2014,04,26,08,38,8.50
2014,04,26,08,39,8.50
2014,04,26,08,40,8.50
2014,04,26,08,41,8.60
2014,04,26,08,42,8.60
2014,04,26,08,43,8.70
2014,04,26,08,44,8.70
2014,04,26,08,45,8.70
2014,04,26,08,46,8.70
2014,04,26,08,47,8.80
2014,04,26,08,48,8.90
2014,04,26,08,49,8.90
2014,04,26,08,50,9.00
2014,04,26,08,51,9.10
2014,04,26,08,52,9.10
2014,04,26,08,53,9.10
2014,04,26,08,54,9.10
2014,04,26,08,55,9.20
2014,04,26,08,56,9.20
2014,04,26,08,57,9.20
2014,04,26,08,58,9.30
2014,04,26,08,59,9.30
2014,04,26,09,00,9.40
2014,04,26,09,01,9.40
2014,04,26,09,02,9.40
2014,04,26,09,03,9.30
2014,04,26,09,04,9.20
2014,04,26,09,05,9.30
2014,04,26,09,06,9.40
2014,04,26,09,07,9.40
2014,04,26,09,08,9.50
2014,04,26,09,09,9.40
2014,04,26,09,10,9.40
2014,04,26,09,11,9.40
2014,04,26,09,12,9.40
2014,04,26,09,13,9.30
2014,04,26,09,14,9.30
2014,04,26,09,15,9.40
2014,04,26,09,16,9.40
2014,04,26,09,17,9.50
2014,04,26,09,18,9.50
2014,04,26,09,19,9.40
2014,04,26,09,20,9.40
2014,04,26,09,21,9.40
2014,04,26,09,22,9.30
2014,04,26,09,23,9.30
2014,04,26,09,24,9.20
2014,04,26,09,25,9.20
2014,04,26,09,26,9.20
2014,04,26,09,27,9.10
2014,04,26,09,28,8.90
2014,04,26,09,29,8.80
2014,04,26,09,30,8.80
2014,04,26,09,31,8.70
2014,04,26,09,32,8.80
2014,04,26,09,33,8.80
2014,04,26,09,34,8.90
2014,04,26,09,35,8.90
2014,04,26,09,36,8.90
2014,04,26,09,37,9.00
2014,04,26,09,38,8.90
2014,04,26,09,39,8.90
2014,04,26,09,40,8.90
2014,04,26,09,41,8.90
2014,04,26,09,42,9.10
2014,04,26,09,43,9.20
2014,04,26,09,44,9.20
2014,04,26,09,45,9.20
2014,04,26,09,46,9.20
2014,04,26,09,47,9.20
2014,04,26,09,48,9.20
2014,04,26,09,49,9.20
2014,04,26,09,50,9.10
2014,04,26,09,51,9.10
2014,04,26,09,52,9.10
2014,04,26,09,53,9.00
2014,04,26,09,54,9.00
2014,04,26,09,55,9.00
2014,04,26,09,56,9.00
2014,04,26,09,57,9.00
2014,04,26,09,58,9.10
2014,04,26,09,59,9.20
2014,04,26,10,00,9.40
2014,04,26,10,01,9.40
2014,04,26,10,02,9.40
2014,04,26,10,03,9.30
2014,04,26,10,04,9.30
2014,04,26,10,05,9.20
2014,04,26,10,06,9.20
2014,04,26,10,07,9.20
2014,04,26,10,08,9.20
2014,04,26,10,09,9.20
2014,04,26,10,10,9.20
2014,04,26,10,11,9.20
2014,04,26,10,12,9.20
2014,04,26,10,13,9.30
2014,04,26,10,14,9.40
2014,04,26,10,15,9.50
2014,04,26,10,16,9.60
2014,04,26,10,17,9.60
2014,04,26,10,18,9.40
2014,04,26,10,19,9.30
2014,04,26,10,20,9.20
2014,04,26,10,21,9.20
2014,04,26,10,22,9.30
2014,04,26,10,23,9.40
2014,04,26,10,24,9.40
2014,04,26,10,25,9.30
2014,04,26,10,26,9.40
2014,04,26,10,27,9.50
2014,04,26,10,28,9.60
2014,04,26,10,29,9.70
2014,04,26,10,30,9.70
2014,04,26,10,31,9.80
2014,04,26,10,32,9.90
2014,04,26,10,33,9.80
2014,04,26,10,34,9.70
2014,04,26,10,35,9.80
2014,04,26,10,36,9.90
2014,04,26,10,37,9.80
2014,04,26,10,38,9.90
2014,04,26,10,39,10.00
2014,04,26,10,40,9.90
2014,04,26,10,41,9.90
2014,04,26,10,42,9.90
2014,04,26,10,43,9.90
2014,04,26,10,44,9.70
2014,04,26,10,45,9.70
2014,04,26,10,46,9.80
2014,04,26,10,47,9.90
2014,04,26,10,48,9.90
2014,04,26,10,49,9.90
2014,04,26,10,50,9.80
2014,04,26,10,51,9.60
2014,04,26,10,52,9.60
2014,04,26,10,53,9.60
2014,04,26,10,54,9.60
2014,04,26,10,55,9.70
2014,04,26,10,56,9.80
2014,04,26,10,57,9.80
2014,04,26,10,58,9.70
2014,04,26,10,59,9.70
2014,04,26,11,00,9.70
2014,04,26,11,01,9.60
2014,04,26,11,02,9.60
2014,04,26,11,03,9.50
2014,04,26,11,04,9.50
2014,04,26,11,05,9.50
2014,04,26,11,06,9.50
2014,04,26,11,07,9.50
2014,04,26,11,08,9.50
2014,04,26,11,09,9.50
2014,04,26,11,10,9.60
2014,04,26,11,11,9.70
2014,04,26,11,12,9.80
2014,04,26,11,13,9.90
2014,04,26,11,14,9.90
2014,04,26,11,15,9.90
2014,04,26,11,16,9.90
2014,04,26,11,17,9.90
2014,04,26,11,18,9.90
2014,04,26,11,19,9.90
2014,04,26,11,20,10.00
2014,04,26,11,21,10.10
2014,04,26,11,22,9.90
2014,04,26,11,23,9.90
2014,04,26,11,24,10.00
2014,04,26,11,25,10.10
2014,04,26,11,26,9.90
2014,04,26,11,27,9.90
2014,04,26,11,28,9.80
2014,04,26,11,29,9.60
2014,04,26,11,30,9.50
2014,04,26,11,31,9.50
2014,04,26,11,32,9.50
2014,04,26,11,33,9.60
2014,04,26,11,34,9.70
2014,04,26,11,35,9.80
2014,04,26,11,36,9.90
2014,04,26,11,37,9.80
2014,04,26,11,38,9.70
2014,04,26,11,39,9.70
2014,04,26,11,40,9.70
2014,04,26,11,41,9.80
2014,04,26,11,42,9.90
2014,04,26,11,43,9.90
2014,04,26,11,44,9.90
2014,04,26,11,45,9.90
2014,04,26,11,46,9.80
2014,04,26,11,47,9.80
2014,04,26,11,48,9.70
2014,04,26,11,49,9.80
2014,04,26,11,50,9.80
2014,04,26,11,51,9.80
2014,04,26,11,52,9.70
2014,04,26,11,53,9.70
2014,04,26,11,54,9.80
2014,04,26,11,55,9.80
2014,04,26,11,56,9.90
2014,04,26,11,57,9.90
2014,04,26,11,58,9.90
2014,04,26,11,59,9.90
2014,04,26,12,00,9.90
2014,04,26,12,01,9.80
2014,04,26,12,02,9.70
2014,04,26,12,03,9.70
2014,04,26,12,04,9.60
2014,04,26,12,05,9.60
2014,04,26,12,06,9.70
2014,04,26,12,07,9.70
2014,04,26,12,08,9.70
2014,04,26,12,09,9.70
2014,04,26,12,10,9.80
2014,04,26,12,11,9.80
2014,04,26,12,12,9.70
2014,04,26,12,13,9.80
2014,04,26,12,14,9.70
2014,04,26,12,15,9.70
2014,04,26,12,16,9.70
2014,04,26,12,17,9.70
2014,04,26,12,18,9.70
2014,04,26,12,19,9.70
2014,04,26,12,20,9.70
2014,04,26,12,21,9.70
2014,04,26,12,22,9.70
2014,04,26,12,23,9.80
2014,04,26,12,24,9.80
2014,04,26,12,25,9.80
2014,04,26,12,26,9.90
2014,04,26,12,27,9.90
2014,04,26,12,28,9.90
2014,04,26,12,29,9.90
2014,04,26,12,30,9.90
2014,04,26,12,31,10.00
2014,04,26,12,32,10.10
2014,04,26,12,33,10.10
2014,04,26,12,34,10.10
2014,04,26,12,35,10.30
2014,04,26,12,36,10.40
2014,04,26,12,37,10.50
2014,04,26,12,38,10.60
2014,04,26,12,39,10.60
2014,04,26,12,40,10.60
2014,04,26,12,41,10.60
2014,04,26,12,42,10.60
2014,04,26,12,43,10.50
2014,04,26,12,44,10.40
2014,04,26,12,45,10.40
2014,04,26,12,46,10.40
2014,04,26,12,47,10.30
2014,04,26,12,48,10.30
2014,04,26,12,49,10.10
2014,04,26,12,50,10.20
2014,04,26,12,51,10.20
2014,04,26,12,52,10.30
2014,04,26,12,53,10.30
2014,04,26,12,54,10.20
2014,04,26,12,55,10.20
2014,04,26,12,56,10.20
2014,04,26,12,57,10.30
2014,04,26,12,58,10.30
2014,04,26,12,59,10.30
2014,04,26,13,00,10.30
2014,04,26,13,01,10.30
2014,04,26,13,02,10.30
2014,04,26,13,03,10.20
2014,04,26,13,04,10.10
2014,04,26,13,05,10.10
2014,04,26,13,06,10.20
2014,04,26,13,07,10.20
2014,04,26,13,08,10.30
2014,04,26,13,09,10.20
2014,04,26,13,10,10.10
2014,04,26,13,11,10.00
2014,04,26,13,12,9.90
2014,04,26,13,13,9.90
2014,04,26,13,14,9.90
2014,04,26,13,15,9.90
2014,04,26,13,16,9.90
2014,04,26,13,17,9.90
2014,04,26,13,18,9.90
2014,04,26,13,19,9.90
2014,04,26,13,20,9.80
2014,04,26,13,21,9.70
2014,04,26,13,22,9.70
2014,04,26,13,23,9.80
2014,04,26,13,24,9.80
2014,04,26,13,25,9.90
2014,04,26,13,26,9.90
2014,04,26,13,27,9.90
2014,04,26,13,28,9.90
2014,04,26,13,29,9.90
2014,04,26,13,30,9.90
2014,04,26,13,31,9.90
2014,04,26,13,32,9.90
2014,04,26,13,33,9.90
2014,04,26,13,34,9.90
2014,04,26,13,35,10.10
2014,04,26,13,36,10.10
2014,04,26,13,37,10.20
2014,04,26,13,38,10.30
2014,04,26,13,39,10.40
2014,04,26,13,40,10.60
2014,04,26,13,41,10.80
2014,04,26,13,42,10.90
2014,04,26,13,43,11.00
2014,04,26,13,44,11.00
2014,04,26,13,45,10.90
2014,04,26,13,46,10.90
2014,04,26,13,47,10.80
2014,04,26,13,48,10.70
2014,04,26,13,49,10.70
2014,04,26,13,50,10.70
2014,04,26,13,51,10.70
2014,04,26,13,52,10.80
2014,04,26,13,53,10.90
2014,04,26,13,54,11.10
2014,04,26,13,55,11.10
2014,04,26,13,56,11.10
2014,04,26,13,57,11.00
2014,04,26,13,58,10.90
2014,04,26,13,59,10.90
2014,04,26,14,00,10.90
2014,04,26,14,01,10.90
2014,04,26,14,02,10.90
2014,04,26,14,03,11.00
2014,04,26,14,04,11.10
2014,04,26,14,05,11.00
2014,04,26,14,06,11.00
2014,04,26,14,07,11.10
2014,04,26,14,08,11.20
2014,04,26,14,09,11.10
2014,04,26,14,10,11.00
2014,04,26,14,11,11.00
2014,04,26,14,12,11.10
2014,04,26,14,13,11.20
2014,04,26,14,14,11.20
2014,04,26,14,15,11.30
2014,04,26,14,16,11.40
2014,04,26,14,17,11.40
2014,04,26,14,18,11.40
2014,04,26,14,19,11.60
2014,04,26,14,20,11.60
2014,04,26,14,21,11.60
2014,04,26,14,22,11.60
2014,04,26,14,23,11.60
2014,04,26,14,24,11.70
2014,04,26,14,25,11.80
2014,04,26,14,26,11.70
2014,04,26,14,27,11.70
2014,04,26,14,28,11.60
2014,04,26,14,29,11.70
2014,04,26,14,30,11.80
2014,04,26,14,31,11.90
2014,04,26,14,32,11.90
2014,04,26,14,33,11.80
2014,04,26,14,34,11.80
2014,04,26,14,35,11.80
2014,04,26,14,36,11.70
2014,04,26,14,37,11.60
2014,04,26,14,38,11.50
2014,04,26,14,39,11.40
2014,04,26,14,40,11.40
2014,04,26,14,41,11.40
2014,04,26,14,42,11.30
2014,04,26,14,43,11.30
2014,04,26,14,44,11.30
2014,04,26,14,45,11.40
2014,04,26,14,46,11.40
2014,04,26,14,47,11.40
2014,04,26,14,48,11.40
2014,04,26,14,49,11.40
2014,04,26,14,50,11.50
2014,04,26,14,51,11.60
2014,04,26,14,52,11.60
2014,04,26,14,53,11.60
2014,04,26,14,54,11.60
2014,04,26,14,55,11.60
2014,04,26,14,56,11.60
2014,04,26,14,57,11.60
2014,04,26,14,58,11.50
2014,04,26,14,59,11.40
2014,04,26,15,00,11.40
2014,04,26,15,01,11.40
2014,04,26,15,02,11.60
2014,04,26,15,03,11.70
2014,04,26,15,04,11.80
2014,04,26,15,05,11.80
2014,04,26,15,06,11.80
2014,04,26,15,07,11.80
2014,04,26,15,08,11.80
2014,04,26,15,09,11.70
2014,04,26,15,10,11.60
2014,04,26,15,11,11.40
2014,04,26,15,12,11.40
2014,04,26,15,13,11.40
2014,04,26,15,14,11.50
2014,04,26,15,15,11.60
2014,04,26,15,16,11.70
2014,04,26,15,17,11.70
2014,04,26,15,18,11.80
2014,04,26,15,19,11.80
2014,04,26,15,20,11.80
2014,04,26,15,21,11.80
2014,04,26,15,22,11.80
2014,04,26,15,23,11.80
2014,04,26,15,24,11.70
2014,04,26,15,25,11.80
2014,04,26,15,26,11.80
2014,04,26,15,27,11.80
2014,04,26,15,28,11.70
2014,04,26,15,29,11.60
2014,04,26,15,30,11.60
2014,04,26,15,31,11.50
2014,04,26,15,32,11.40
2014,04,26,15,33,11.40
2014,04,26,15,34,11.50
2014,04,26,15,35,11.60
2014,04,26,15,36,11.60
2014,04,26,15,37,11.60
2014,04,26,15,38,11.60
2014,04,26,15,39,11.60
2014,04,26,15,40,11.60
2014,04,26,15,41,11.60
2014,04,26,15,42,11.60
2014,04,26,15,43,11.60
2014,04,26,15,44,11.60
2014,04,26,15,45,11.60
2014,04,26,15,46,11.60
2014,04,26,15,47,11.50
2014,04,26,15,48,11.50
2014,04,26,15,49,11.60
2014,04,26,15,50,11.70
2014,04,26,15,51,11.70
2014,04,26,15,52,11.70
2014,04,26,15,53,11.80
2014,04,26,15,54,11.80
2014,04,26,15,55,11.80
2014,04,26,15,56,11.80
2014,04,26,15,57,11.90
2014,04,26,15,58,11.90
2014,04,26,15,59,12.00
2014,04,26,16,00,12.00
2014,04,26,16,01,12.00
2014,04,26,16,02,11.90
2014,04,26,16,03,11.80
2014,04,26,16,04,11.80
2014,04,26,16,05,11.80
2014,04,26,16,06,11.80
2014,04,26,16,07,11.80
2014,04,26,16,08,11.80
2014,04,26,16,09,11.90
2014,04,26,16,10,11.90
2014,04,26,16,11,11.90
2014,04,26,16,12,11.80
2014,04,26,16,13,11.80
2014,04,26,16,14,11.80
2014,04,26,16,15,11.70
2014,04,26,16,16,11.70
2014,04,26,16,17,11.80
2014,04,26,16,18,11.80
2014,04,26,16,19,11.90
2014,04,26,16,20,11.90
2014,04,26,16,21,12.00
2014,04,26,16,22,12.20
2014,04,26,16,23,12.20
2014,04,26,16,24,12.10
2014,04,26,16,25,12.10
2014,04,26,16,26,12.10
2014,04,26,16,27,12.00
2014,04,26,16,28,12.00
2014,04,26,16,29,11.90
2014,04,26,16,30,12.00
2014,04,26,16,31,12.00
2014,04,26,16,32,12.00
2014,04,26,16,33,12.00
2014,04,26,16,34,11.90
2014,04,26,16,35,11.90
2014,04,26,16,36,11.90
2014,04,26,16,37,11.80
2014,04,26,16,38,11.80
2014,04,26,16,39,11.80
2014,04,26,16,40,11.90
2014,04,26,16,41,11.90
2014,04,26,16,42,11.90
2014,04,26,16,43,11.80
2014,04,26,16,44,11.90
2014,04,26,16,45,12.00
2014,04,26,16,46,12.10
2014,04,26,16,47,12.10
2014,04,26,16,48,12.10
2014,04,26,16,49,12.00
2014,04,26,16,50,12.00
2014,04,26,16,51,12.00
2014,04,26,16,52,11.90
2014,04,26,16,53,11.90
2014,04,26,16,54,11.80
2014,04,26,16,55,11.80
2014,04,26,16,56,11.80
2014,04,26,16,57,11.80
2014,04,26,16,58,11.70
2014,04,26,16,59,11.70
2014,04,26,17,00,11.70
2014,04,26,17,01,11.60
2014,04,26,17,02,11.60
2014,04,26,17,03,11.50
2014,04,26,17,04,11.40
2014,04,26,17,05,11.40
2014,04,26,17,06,11.50
2014,04,26,17,07,11.60
2014,04,26,17,08,11.60
2014,04,26,17,09,11.60
2014,04,26,17,10,11.50
2014,04,26,17,11,11.40
2014,04,26,17,12,11.40
2014,04,26,17,13,11.40
2014,04,26,17,14,11.40
2014,04,26,17,15,11.40
2014,04,26,17,16,11.50
2014,04,26,17,17,11.60
2014,04,26,17,18,11.70
2014,04,26,17,19,11.70
2014,04,26,17,20,11.80
2014,04,26,17,21,11.80
2014,04,26,17,22,11.80
2014,04,26,17,23,11.70
2014,04,26,17,24,11.70
2014,04,26,17,25,11.70
2014,04,26,17,26,11.70
2014,04,26,17,27,11.70
2014,04,26,17,28,11.70
2014,04,26,17,29,11.60
2014,04,26,17,30,11.60
2014,04,26,17,31,11.50
2014,04,26,17,32,11.40
2014,04,26,17,33,11.40
2014,04,26,17,34,11.40
2014,04,26,17,35,11.40
2014,04,26,17,36,11.40
2014,04,26,17,37,11.40
2014,04,26,17,38,11.40
2014,04,26,17,39,11.40
2014,04,26,17,40,11.40
2014,04,26,17,41,11.30
2014,04,26,17,42,11.20
2014,04,26,17,43,11.20
2014,04,26,17,44,11.20
2014,04,26,17,45,11.20
2014,04,26,17,46,11.20
2014,04,26,17,47,11.20
2014,04,26,17,48,11.10
2014,04,26,17,49,11.10
2014,04,26,17,50,11.10
2014,04,26,17,51,11.10
2014,04,26,17,52,11.10